Columbia Owens, SC

11:06 PM EDT on September 25, 2017 (GMT -0400)
Columbia Owens Downtown

Weather History for KCUB - August, 2013

Change the Weather History Date:

Tuesday, August 20, 2013

  Actual Average Record
Temperature  
Mean Temperature 79 °F 81 °F  
Max Temperature 84 °F 90 °F 99 °F (2007)
Min Temperature 73 °F 71 °F 71 °F (2004)
Degree Days  
Heating Degree Days 0 0  
Month to date heating degree days 0 0  
Since 1 June heating degree days 0 0  
Since 1 July heating degree days 0 0  
Cooling Degree Days 14 16  
Month to date cooling degree days 297 335  
Year to date cooling degree days 1564 1651  
Since 1 June cooling degree days 1254 1315  
Growing Degree Days 28 (Base 50)    
Moisture  
Dew Point 73 °F    
Average Humidity 87    
Maximum Humidity 94    
Minimum Humidity 69    
Precipitation  
Precipitation 0.47 in 0.15 in 2.50 in (2006)
Month to date precipitation 7.21 3.35  
Year to date precipitation 42.11 30.26  
Sea Level Pressure  
Sea Level Pressure 30.15 in    
Wind  
Wind Speed 1 mph (NE)    
Max Wind Speed 9 mph    
Max Gust Speed 14 mph    
Visibility 8 miles    
Events Fog , Rain    
T = Trace of Precipitation, MM = Missing Value Source: NWS Daily Summary

Daily Weather History Graph

Daily Weather History Graph

Search for Another Location

Airport or City:

Trip Planner

Search our weather history database for the weather conditions in past years. The results will help you decide how hot, cold, wet, or windy it might be!

Date:

Astronomy

Aug. 20, 2013 Rise Set
Actual Time 6:49 AM EDT 8:04 PM EDT
Civil Twilight 6:23 AM EDT 8:30 PM EDT
Nautical Twilight 5:52 AM EDT 9:01 PM EDT
Astronomical Twilight 5:19 AM EDT 9:34 PM EDT
Moon 7:38 PM EDT (8/20) 6:16 AM EDT (8/20)
Length of Visible Light 14h 07m
Length of Day
13h 15m
Full, 100% of the Moon is Illuminated
Aug 20
Full
Aug 20
Full
Aug 28
Last Quarter
Sep 5
New
Sep 12
First Quarter

Hourly Weather History & Observations

Time (EDT) Temp. Heat Index Dew Point Humidity Pressure Visibility Wind Dir Wind Speed Gust Speed Precip Events Conditions
12:09 AM 73.4 °F - 71.6 °F 94% 30.14 in 10.0 mi Calm Calm - N/A   Overcast
12:53 AM 73.9 °F - 71.1 °F 91% 30.12 in 10.0 mi Variable 3.5 mph - N/A   Partly Cloudy
1:37 AM 73.4 °F - 71.6 °F 94% 30.12 in 10.0 mi Calm Calm - N/A   Mostly Cloudy
1:53 AM 73.9 °F - 71.1 °F 91% 30.12 in 10.0 mi Variable 3.5 mph - N/A   Overcast
2:26 AM 73.4 °F - 71.6 °F 94% 30.11 in 10.0 mi Calm Calm - N/A   Overcast
2:53 AM 73.9 °F - 71.1 °F 91% 30.11 in 10.0 mi Calm Calm - N/A   Overcast
3:35 AM 73.4 °F - 71.6 °F 94% 30.12 in 10.0 mi Calm Calm - N/A   Overcast
3:53 AM 73.9 °F - 71.1 °F 91% 30.11 in 10.0 mi Calm Calm - N/A   Overcast
4:53 AM 73.0 °F - 71.1 °F 93% 30.11 in 10.0 mi Calm Calm - N/A   Overcast
5:53 AM 73.0 °F - 71.1 °F 93% 30.10 in 8.0 mi ENE 3.5 mph - N/A   Overcast
6:53 AM 73.0 °F - 72.0 °F 96% 30.12 in 6.0 mi Calm Calm - N/A   Overcast
7:53 AM 73.0 °F - 72.0 °F 96% 30.14 in 5.0 mi Calm Calm - 0.00 in   Overcast
8:53 AM 73.9 °F - 72.0 °F 93% 30.15 in 6.0 mi Calm Calm - 0.00 in   Overcast
9:53 AM 75.0 °F - 72.0 °F 90% 30.16 in 10.0 mi Calm Calm - N/A   Overcast
10:06 AM 75.2 °F - 71.6 °F 89% 30.17 in 10.0 mi Calm Calm - N/A   Overcast
10:53 AM 78.1 °F - 73.0 °F 84% 30.18 in 10.0 mi East 3.5 mph - N/A   Overcast
11:29 AM 80.6 °F 85.4 °F 73.4 °F 79% 30.18 in 10.0 mi North 3.5 mph - N/A   Mostly Cloudy
11:53 AM 81.0 °F 86.2 °F 73.9 °F 79% 30.17 in 10.0 mi Calm Calm - N/A   Overcast
12:06 PM 82.4 °F 88.2 °F 73.4 °F 74% 30.19 in 10.0 mi Calm Calm - N/A   Overcast
12:53 PM 82.9 °F 88.8 °F 73.0 °F 72% 30.18 in 10.0 mi Calm Calm - N/A   Overcast
1:20 PM 82.4 °F 88.2 °F 73.4 °F 74% 30.18 in 10.0 mi Calm Calm - N/A   Mostly Cloudy
1:49 PM 78.8 °F - 75.2 °F 89% 30.18 in 1.2 mi NNW 9.2 mph - 0.07 in Rain Rain
1:51 PM 78.8 °F - 73.4 °F 83% 30.18 in 0.5 mi Variable 4.6 mph - 0.19 in Fog , Rain Heavy Rain
1:53 PM 78.1 °F - 73.9 °F 87% 30.18 in 0.2 mi North 4.6 mph - 0.30 in Fog , Rain Heavy Rain
2:06 PM 77.0 °F - 75.2 °F 94% 30.17 in 1.0 mi Calm Calm - 0.17 in Rain Light Rain
2:08 PM 78.8 °F - 75.2 °F 89% 30.17 in 2.0 mi Calm Calm - 0.17 in Rain Light Rain
2:15 PM 78.8 °F - 73.4 °F 83% 30.16 in 9.0 mi Calm Calm - 0.17 in Rain Light Rain
2:53 PM 81.0 °F 87.3 °F 75.9 °F 85% 30.14 in 10.0 mi Calm Calm - 0.17 in   Clear
3:53 PM 81.0 °F 87.3 °F 75.9 °F 85% 30.13 in 10.0 mi Calm Calm - N/A   Mostly Cloudy
4:53 PM 82.0 °F 87.4 °F 73.0 °F 74% 30.11 in 10.0 mi NE 3.5 mph - 0.00 in   Scattered Clouds
5:53 PM 82.9 °F 87.5 °F 71.1 °F 67% 30.13 in 10.0 mi ESE 3.5 mph - N/A   Clear
6:53 PM 82.0 °F 87.9 °F 73.9 °F 76% 30.13 in 10.0 mi Calm Calm - N/A   Clear
7:53 PM 80.1 °F 85.1 °F 75.0 °F 85% 30.13 in 10.0 mi Calm Calm - N/A   Scattered Clouds
8:53 PM 78.1 °F - 73.9 °F 87% 30.15 in 10.0 mi Calm Calm - N/A   Mostly Cloudy
9:53 PM 77.0 °F - 75.0 °F 94% 30.17 in 10.0 mi Calm Calm - 0.00 in   Overcast
10:53 PM 77.0 °F - 75.0 °F 94% 30.18 in 10.0 mi Calm Calm - N/A   Clear
11:53 PM 75.9 °F - 73.9 °F 94% 30.19 in 10.0 mi Calm Calm - N/A   Clear